Hourly Data Report for September 08, 2017

All times are specified in Local Standard Time (LST). Add 1 hour to adjust for Daylight Saving Time where and when it is observed.

CAPE DORSET A
NUNAVUT

64°13'49.000" N
76°31'30.000" W
48.20 m
2400637
71366
YTE

Download Data

Hourly Data (September 2017)
Hourly Data Report for September 8, 2017
Temp Definition
°C
Dew Point Temp Definition
°C
Rel Hum Definition
%
Wind Dir Definition
10's deg

Wind Spd Definition
km/h
Visibility Definition
km
Stn Press Definition
kPa
Hmdx Definition


Wind Chill Definition


Weather Definition


TIME
00:00 Legend Double Dagger -0.4 -3.9 77 27 18 16.1 100.85   -5 LegendNANA
01:00 Legend Double Dagger -0.4 -3.3 81 26 9 16.1 100.81   -4 LegendNANA
02:00 Legend Double Dagger 0.0 -2.2 85 26 9 16.1 100.78   -3 LegendNANA
03:00 Legend Double Dagger 0.2 -1.7 87 24 18 16.1 100.75     LegendNANA
04:00 Legend Double Dagger 0.2 -1.7 87 22 17 16.1 100.75     LegendNANA
05:00 Legend Double Dagger 0.4 -1.5 87 23 17 16.1 100.69     LegendNANA
06:00 Legend Double Dagger 1.2 -0.9 86 23 22 16.1 100.58     LegendNANA
07:00 Legend Double Dagger 2.0 -0.3 85 22 24 16.1 100.54     LegendNANA
08:00 Legend Double Dagger 2.1 -0.2 85 21 24 16.1 100.49     LegendNANA
09:00 Legend Double Dagger 2.4 -0.4 82 20 24 16.1 100.41     LegendNANA
10:00 Legend Double Dagger 2.6 -0.3 81 19 24 16.1 100.33     LegendNANA
11:00 Legend Double Dagger 2.5 0.3 86 19 21 16.1 100.26     Rain
12:00 Legend Double Dagger 3.1 0.9 85 18 28 16.1 100.15     Rain
13:00 Legend Double Dagger 3.1 1.5 89 17 22 16.1 100.05     Rain
14:00 Legend Double Dagger 3.9 2.4 90 18 30 16.1 99.90     Rain
15:00 Legend Double Dagger 4.1 3.1 93 17 34 14.5 99.69     Rain
16:00 Legend Double Dagger 3.9 3.3 96 17 34 12.9 99.49     Rain
17:00 Legend Double Dagger 4.1 3.5 96 18 39 16.1 99.28     Rain
18:00 Legend Double Dagger 5.3 4.6 95 20 37 11.3 99.07     Rain
19:00 Legend Double Dagger 5.6 4.9 95 19 35 16.1 98.92     Rain
20:00 Legend Double Dagger 5.6 4.7 94 19 34 14.5 98.71     Rain
21:00 Legend Double Dagger 7.1 5.6 90 22 37 14.5 98.45     LegendNANA
22:00 Legend Double Dagger 6.7 5.3 91 22 39 12.9 98.20     Rain
23:00 Legend Double Dagger 6.5 5.3 92 22 43 8.1 98.10     Fog

Notes on Data Quality.

Legend

  • E = Estimated
  • M = Missing
  • NA = Not Available
  • ‡ = Partner data that is not subject to review by the National Climate Archives
Date modified: